Location: Lecco
(45.8566°N, 9.3977°E)
Time: 10:42:33
(UTC+02:00)

Courier 1B Rocket - Pass Details

Date: 27 August 2019
Orbit: 920 x 1202 km, 28.2° (Epoch: 15 September)

Event Time Altitude Azimuth Distance (km) Brightness Sun altitude
Rises 06:53:16 0° 249° (WSW) 3,964 7.5 2.0°
Reaches altitude 10° 06:57:40 10° 225° (SW) 3,054 7.1 2.7°
Maximum altitude 07:01:12 14° 197° (SSW) 2,799 7.2 3.3°
Drops below altitude 10° 07:04:47 10° 169° (S) 3,108 7.7 3.9°
Sets 07:09:22 0° 146° (SE) 4,087 8.6 4.7°
